Location: Bassano
(45.7667°N, 11.7333°E)
Time: 22:46:07
(UTC+00:00)

Cosmos 2298 Rocket - Pass Details

Date: 07 June 2020
Orbit: 776 x 784 km, 74.0° (Epoch: 14 July)

Event Time Altitude Azimuth Distance (km) Brightness Sun altitude
Rises 00:08:54 0° 340° (NNW) 3,270 8.2 -20.2°
Reaches altitude 10° 00:11:19 10° 342° (NNW) 2,339 7.3 -20.1°
Maximum altitude 00:16:37 70° 67° (ENE) 829 4.2 -19.9°
Enters shadow 00:19:49 24° 146° (SSE) 1,562 5.2 -19.7°
